Dewpoint
36 37 38 39 37 35 35 34 33 34 36 42 44 52 54 54 53 52 52 52 53 54 55 57 57 58 59 61 62 62 62 63 63 61 61 61 61 59 57 57 55 53 53
42 42 41 41 40 38 36 35 34 34 35 38 44 48 52 52 52 53 52 53 53 54 56 56 57 58 59 59 60 61 60 61 62 60 59 56 57 58 58 57 56 55 54
42 44 44 43 43 40 36 36 35 37 36 37 42 49 52 54 53 53 54 54 55 57 58 58 58 58 59 58 60 60 60 59 61 61 59 55 53 54 56 57 56 55 55
41 42 43 44 45 46 49 44 38 38 37 38 43 52 53 53 53 52 52 54 55 56 57 59 59 59 59 60 60 61 61 60 58 60 60 59 56 51 49 55 56 56 55
39 39 40 40 42 43 44 46 49 40 38 39 44 53 53 53 51 51 53 54 55 57 58 59 59 59 60 60 60 60 60 60 59 58 58 59 59 57 56 52 54 55 56
38 38 38 38 39 40 41 43 46 49 44 43 48 51 53 52 52 53 53 55 57 60 60 60 61 61 60 60 60 60 60 60 60 59 59 57 56 55 54 54 54 53 55
39 38 36 37 37 38 39 40 44 49 50 49 51 53 52 53 53 55 56 57 58 58 58 58 58 60 61 61 61 60 60 60 60 60 59 58 58 56 55 54 54 53 53
34 33 35 36 37 36 37 39 42 45 47 51 52 53 54 54 53 53 54 52 52 52 52 53 55 57 59 61 61 61 60 60 60 59 59 58 58 58 57 55 54 52 52
27 28 30 34 36 35 36 38 40 41 42 44 45 45 46 46 45 45 45 46 46 45 44 45 48 50 52 54 59 58 58 57 57 56 57 56 56 56 56 56 55 52 48
26 28 28 31 33 33 35 37 38 38 38 40 40 40 40 41 41 41 41 41 40 40 41 41 41 42 44 46 50 52 55 57 58 58 57 57 57 57 58 57 56 55 53
21 24 27 30 31 32 32 34 35 34 36 37 37 38 38 39 38 38 39 41 40 37 36 36 35 35 36 38 40 43 46 47 49 50 52 55 56 56 56 56 56 56 56
23 21 25 27 27 26 28 27 27 28 30 34 35 36 37 38 37 37 37 33 30 29 29 29 30 30 31 33 35 36 37 38 39 40 42 43 46 47 50 51 52 54 56
24 23 20 22 22 23 24 25 25 27 26 28 27 27 27 27 27 26 25 25 25 25 26 26 26 27 27 29 31 31 32 34 35 36 38 39 41 43 45 46 46 48 49
25 24 21 22 23 22 23 24 25 25 25 25 25 25 25 25 25 26 25 25 25 25 25 25 26 27 28 28 31 32 32 32 32 33 34 35 36 37 39 40 40 40 42
24 25 23 22 23 21 21 24 25 26 25 24 24 25 25 25 25 26 25 25 26 26 26 26 26 27 27 28 31 32 31 31 31 32 32 33 34 36 37 38 39 39 39
25 26 24 22 22 20 21 23 24 25 24 24 24 24 25 25 25 26 25 25 25 25 26 26 27 28 27 29 32 33 32 31 31 31 33 34 34 34 35 36 37 38 38
27 27 25 22 21 19 21 21 23 24 24 24 24 24 25 25 25 26 25 26 25 26 26 25 26 26 27 30 30 31 31 31 31 31 31 32 32 34 34 34 35 35 36
28 28 26 23 23 21 21 22 23 23 24 25 24 25 25 25 25 25 26 26 26 25 26 26 26 26 26 28 29 31 31 31 31 31 30 30 30 31 32 33 34 36 37
30 29 27 24 23 20 21 22 22 22 23 23 23 25 25 25 24 24 25 26 26 26 26 26 25 25 25 27 29 30 30 29 30 30 30 30 30 31 31 32 32 33 34
31 29 26 24 23 21 22 22 21 21 21 23 24 25 25 25 24 24 25 25 26 25 25 24 23 23 24 26 29 30 30 29 28 29 30 30 30 31 31 31 31 31 31
30 28 27 24 23 21 23 22 22 21 23 26 26 26 25 25 24 25 26 26 24 23 23 22 22 23 25 26 28 29 30 30 31 31 30 31 31 32 33 33 31 31 32
28 27 26 24 22 23 24 24 24 24 26 26 26 25 24 23 23 25 25 25 22 22 22 22 22 24 25 26 27 29 29 30 30 30 30 31 31 33 34 34 34 33 33
28 29 26 25 24 24 25 25 25 25 25 24 24 22 21 21 23 23 24 24 22 22 22 23 24 24 25 26 27 28 29 29 30 31 31 32 34 35 35 35 34 34 34
27 27 27 25 24 25 26 26 25 26 25 23 22 20 20 22 22 23 23 23 22 23 23 24 24 25 25 25 26 27 29 29 30 30 31 33 34 35 36 36 35 34 34
26 25 25 24 22 23 24 25 25 25 24 23 21 21 21 22 22 23 23 24 24 25 25 25 26 26 26 26 27 27 28 29 30 31 31 32 32 34 35 35 34 33 35
26 25 25 25 23 23 25 25 25 25 25 22 21 21 22 22 23 23 24 25 26 26 26 25 25 26 26 26 26 27 28 28 29 28 28 29 30 30 33 34 34 34 36
Wind_Speed
25 22 20 19 19 19 21 22 20 19 18 15 15 15 16 14 14 13 13 13 13 14 13 13 14 13 13 14 13 14 17 15 11 9 14 16 17 18 16 15 17 13 13
27 26 20 18 16 19 20 21 21 21 18 16 15 14 13 14 13 12 12 11 12 12 13 15 14 14 13 14 16 17 17 17 16 15 18 12 14 21 20 12 14 18 17
22 24 21 19 16 16 17 19 19 19 18 17 15 12 13 7 8 9 10 10 11 12 13 14 15 15 15 17 19 19 21 20 15 20 14 5 12 13 15 22 21 18 19
20 20 18 18 18 19 19 13 16 17 17 16 16 16 14 14 12 10 8 8 9 12 14 15 17 19 17 20 21 20 22 21 21 12 25 27 9 7 10 7 15 19 20
17 19 19 19 18 16 17 19 15 16 17 14 18 15 16 11 9 7 8 10 11 13 15 17 19 20 20 22 24 23 24 21 22 23 14 19 17 13 8 10 7 7 13
16 17 18 21 21 18 16 15 14 15 16 16 17 16 15 12 10 9 9 8 9 7 8 11 15 17 20 22 21 20 23 22 22 23 24 23 20 20 21 18 15 13 9
11 13 17 19 21 20 19 17 15 6 14 13 16 16 13 12 10 10 5 4 2 4 8 11 13 13 18 21 19 20 21 22 20 18 18 19 16 15 17 20 18 17 11
10 12 10 11 17 21 19 18 16 13 15 9 3 8 8 4 7 8 7 6 6 6 10 11 13 14 15 8 9 11 11 11 14 14 12 11 10 11 12 12 9 8 9
12 12 12 14 15 16 19 17 16 15 16 15 15 16 14 11 12 8 10 8 8 9 10 12 13 13 13 15 7 3 4 7 7 9 9 8 9 8 11 13 14 18 23
8 9 11 12 11 12 13 15 16 16 16 17 15 14 14 14 13 11 10 11 10 9 11 12 11 13 14 14 13 12 10 5 7 10 11 12 12 13 12 13 15 17 24
8 7 8 10 11 10 11 11 11 11 14 15 13 14 13 14 11 10 10 10 7 8 8 9 8 10 12 12 12 11 12 11 11 13 13 9 9 13 16 17 18 20 21
8 6 5 6 8 8 10 10 11 13 12 10 7 10 11 8 12 11 4 3 4 8 9 9 10 11 11 11 12 14 12 12 11 11 11 11 12 13 12 12 13 14 17
7 8 5 6 7 7 7 8 10 11 10 9 9 10 8 7 6 4 7 7 8 7 8 10 10 11 12 11 12 14 13 13 13 13 13 13 11 11 9 11 13 13 15
8 5 6 5 6 5 5 6 7 9 9 9 10 10 10 8 6 6 7 9 10 10 10 10 10 10 10 9 14 14 15 14 13 12 13 14 13 13 12 12 13 13 16
10 9 6 5 3 4 3 4 5 5 5 5 6 6 5 5 6 7 8 8 8 9 9 10 10 11 10 10 14 14 14 14 14 14 13 13 13 17 17 16 14 16 16
10 9 8 6 5 3 1 0 2 3 3 4 5 5 6 6 7 7 8 9 9 9 10 10 10 10 10 12 16 16 16 17 17 17 16 15 16 14 19 21 20 18 19
10 10 9 7 4 3 1 1 2 3 4 4 5 6 7 8 8 9 9 10 10 10 9 9 9 10 10 9 13 14 14 15 14 16 16 17 16 19 19 20 22 21 20
12 11 10 9 8 7 5 3 1 1 3 4 5 6 7 7 7 7 8 8 9 9 9 8 8 9 7 7 10 15 11 12 14 15 16 17 18 18 22 22 23 21 20
11 10 10 8 7 6 4 3 2 3 4 5 5 6 6 7 7 7 8 8 9 10 9 9 9 9 10 12 16 19 17 17 18 16 17 19 21 23 27 25 25 26 25
8 9 9 8 8 7 6 5 4 4 5 5 7 7 7 8 9 8 8 8 9 10 10 11 10 12 13 14 17 19 15 17 18 19 18 20 23 26 26 24 24 26 26
12 11 11 11 10 8 8 7 5 7 5 5 7 8 8 9 8 8 8 9 10 11 11 11 11 10 12 15 17 19 15 14 16 18 20 19 26 29 29 30 25 26 27
13 13 13 13 11 10 9 7 8 6 5 7 8 9 9 8 7 8 8 9 9 10 11 12 12 10 12 15 17 21 21 23 19 20 21 22 28 32 34 33 32 32 30
15 14 14 12 10 9 9 8 8 6 6 7 8 9 9 9 9 9 9 9 8 9 10 11 13 14 13 14 18 21 25 26 25 22 27 34 33 33 31 30 29 27 20
17 15 15 14 13 12 11 10 7 5 6 7 7 7 8 8 10 9 8 8 9 10 11 12 13 15 18 18 19 22 22 26 25 26 25 28 31 30 27 25 20 16 16
16 16 16 15 15 13 12 10 8 7 7 6 6 6 6 7 8 8 8 9 9 7 11 11 12 14 15 17 24 25 24 24 27 32 22 21 20 20 17 16 16 16 15
17 18 16 14 13 12 11 9 8 7 7 7 8 7 6 7 7 7 9 7 8 12 12 10 10 13 18 21 24 27 28 28 27 20 18 19 18 20 19 17 16 14 14
Wind_Direction
310 299 290 281 275 272 264 254 250 239 237 227 235 215 222 220 226 232 242 244 242 246 250 248 254 255 244 242 243 244 237 227 223 232 240 239 245 261 256 234 242 250 259
326 317 305 293 270 269 267 252 244 241 233 235 225 233 231 226 220 215 228 238 251 254 252 255 258 256 251 247 240 237 247 235 214 229 247 250 236 234 236 222 233 232 230
341 347 348 333 312 284 269 256 246 240 237 224 235 233 240 239 204 219 233 242 246 249 252 259 262 264 264 254 250 242 234 244 225 217 228 224 232 231 219 217 217 227 231
353 346 348 345 345 340 342 295 255 243 237 239 217 232 219 218 217 224 237 250 264 275 279 270 258 258 257 252 249 247 239 238 241 229 225 234 250 226 238 219 214 214 232
356 346 351 345 350 345 336 323 316 242 236 222 233 213 226 237 243 239 250 262 272 280 289 278 269 265 258 253 253 250 242 238 237 232 226 225 234 226 237 222 200 226 232
349 357 355 357 349 346 345 333 325 306 239 222 215 213 220 222 229 236 252 274 288 317 340 327 291 265 259 258 257 258 254 246 242 240 236 227 219 223 227 236 244 237 225
335 352 356 353 346 343 353 352 341 324 289 230 217 217 215 227 231 235 249 265 9 360 340 336 333 320 277 247 248 251 248 246 241 248 236 222 227 220 222 232 237 236 244
334 339 342 357 344 347 357 358 1 23 24 28 44 65 46 274 63 62 68 68 39 11 349 352 340 334 341 325 260 235 235 219 231 238 213 213 208 217 235 214 221 255 249
341 346 356 359 342 347 351 1 17 33 35 41 46 54 59 61 62 55 53 47 34 3 359 359 347 352 5 8 325 305 262 214 243 262 260 248 250 241 244 247 243 249 259
348 348 360 347 347 355 347 3 23 37 40 44 46 54 57 53 50 41 43 30 22 358 5 355 353 353 6 0 6 14 12 299 252 243 242 241 241 239 236 239 234 230 243
337 353 354 348 357 4 357 19 23 36 44 43 47 52 53 52 47 40 27 8 359 354 355 339 339 1 0 2 1 358 13 356 354 6 358 315 273 248 241 239 242 243 241
325 359 353 337 345 358 8 21 34 44 44 51 49 63 56 57 39 30 316 338 354 5 356 355 2 4 350 357 1 1 359 354 348 347 344 333 335 333 332 340 330 309 280
300 325 333 337 355 17 23 30 30 31 41 52 53 56 57 65 56 22 14 6 3 7 2 356 357 353 354 351 4 355 347 342 337 335 331 319 320 311 314 309 303 308 304
265 274 300 319 337 353 18 28 39 38 30 37 38 35 30 27 17 12 8 2 1 2 359 357 356 355 351 7 1 346 340 334 326 319 313 306 304 308 320 314 302 299 294
234 251 251 243 264 306 345 16 38 44 41 47 49 39 21 16 10 6 3 1 356 353 349 345 350 354 351 19 355 346 335 327 320 313 307 306 313 313 304 294 306 311 304
235 230 231 232 234 231 249 349 21 19 16 23 27 18 13 9 6 356 351 347 342 344 342 343 347 343 340 354 351 345 334 329 326 323 320 318 314 311 313 305 300 299 302
233 224 222 223 221 212 244 324 356 350 358 360 1 0 359 357 355 347 342 339 331 326 327 326 332 329 325 4 339 335 323 312 314 313 315 317 312 309 305 304 298 293 287
221 215 207 197 191 186 190 187 199 312 339 341 339 342 342 336 331 324 318 314 315 316 319 319 320 322 330 340 336 336 328 324 317 315 310 306 306 306 309 305 301 298 290
217 211 201 197 181 191 189 212 249 285 299 309 317 317 312 308 304 307 312 315 316 318 318 314 319 328 336 356 351 350 342 331 323 315 314 309 306 304 302 303 301 297 292
205 192 184 181 192 193 194 207 229 255 277 290 302 304 301 301 302 310 314 317 314 312 316 325 337 345 339 348 348 345 335 321 317 315 309 298 293 292 295 294 289 287 287
194 185 184 194 201 190 197 219 237 250 269 278 287 293 293 293 294 300 309 313 312 318 323 328 335 341 342 340 338 331 323 318 314 308 305 302 300 297 293 289 285 280 287
191 191 193 203 199 194 203 223 244 260 269 279 286 290 293 292 294 304 306 311 311 318 322 328 331 333 335 333 328 328 329 325 318 307 302 297 296 294 291 288 284 285 287
204 197 205 205 199 200 206 223 243 241 255 273 286 301 304 303 307 306 309 312 313 320 322 328 328 327 334 325 323 326 326 326 322 313 308 307 299 291 285 277 277 281 284
209 205 206 206 204 201 204 217 229 223 246 273 295 307 308 318 308 312 308 309 316 323 327 325 321 324 325 330 332 328 327 324 322 319 312 305 305 299 288 288 281 273 274
205 201 204 206 207 199 206 210 211 213 235 255 268 275 284 291 300 300 308 307 309 321 313 313 315 314 315 318 320 322 320 320 319 319 314 311 316 304 291 282 275 275 276
204 200 200 195 199 197 201 204 205 208 223 246 258 269 280 287 286 295 301 297 293 308 304 302 313 314 311 319 322 318 322 324 325 322 316 313 313 315 306 291 283 283 283